{"data":{"norad_id":53652,"epoch":"2026-05-25T02:37:01.805952Z","epoch_age_seconds":55736,"freshness":"FRESH","line1":"1 53652U 22105E   26145.10904868 -.00000935  00000+0 -60734-4 0  9997","line2":"2 53652  97.4506  25.0511 0002122  78.2255 281.9210 15.05654379204727","mean_motion":15.05654379,"eccentricity":0.0002122,"inclination_deg":97.4506,"raan_deg":25.0511,"arg_perigee_deg":78.2255,"mean_anomaly_deg":281.921,"bstar":-6.0734e-5,"rev_number":20472,"period_min":95.63947875982,"perigee_km":548.02767783531,"apogee_km":550.9677660113,"semimajor_km":6927.6347219233,"source":"CELESTRAK","updated_at":"2026-05-25T13:38:17.484963Z"}}